| time (UTC) | temp F | wind direction | speed MPH | gust MPH | rain 1hr in | rain 24hr in | rain mn in | humidity % | barometer mb |
| 20260904195346 | 81 | 1 | 0.0 | 4.0 | 0.00 | 0.00 | 0.00 | 50 | 1009.3 |
| 20260904194841 | 82 | 148 | 1.0 | 3.0 | 0.00 | 0.00 | 0.00 | 47 | 1009.2 |
| 20260904194506 | 81 | 148 | 1.0 | 5.0 | 0.00 | 0.02 | 0.00 | 50 | 1007.3 |
| 20260904194340 | 82 | 310 | 2.0 | 3.0 | 0.00 | 0.00 | 0.00 | 49 | 1009.4 |
| 20260904193836 | 83 | 340 | 0.0 | 3.0 | 0.00 | 0.00 | 0.00 | 47 | 1009.4 |
| 20260904193331 | 82 | 194 | 0.0 | 2.0 | 0.00 | 0.00 | 0.00 | 48 | 1009.6 |
| 20260904193007 | 81 | 218 | 1.0 | 5.0 | 0.00 | 0.02 | 0.00 | 50 | 1007.5 |
| 20260904192826 | 82 | 101 | 3.0 | 3.0 | 0.00 | 0.00 | 0.00 | 45 | 1009.6 |
| 20260904192321 | 82 | 114 | 1.0 | 4.0 | 0.00 | 0.00 | 0.00 | 46 | 1009.5 |
| 20260904191818 | 82 | 89 | 0.0 | 2.0 | 0.00 | 0.00 | 0.00 | 48 | 1009.5 |
| 20260904191507 | 80 | 155 | 1.0 | 3.0 | 0.00 | 0.02 | 0.00 | 51 | 1007.7 |
| 20260904191314 | 81 | 285 | 2.0 | 2.0 | 0.00 | 0.00 | 0.00 | 49 | 1009.6 |
| 20260904190810 | 80 | 74 | 2.0 | 3.0 | 0.00 | 0.00 | 0.00 | 48 | 1009.6 |
| 20260904190306 | 81 | 100 | 1.0 | 2.0 | 0.00 | 0.00 | 0.00 | 49 | 1009.7 |
| 20260904190007 | 80 | 151 | 2.0 | 6.0 | 0.00 | 0.02 | 0.00 | 47 | 1007.8 |
| 20260904185802 | 81 | 134 | 3.0 | 4.0 | 0.00 | 0.00 | 0.00 | 46 | 1009.8 |
| 20260904185257 | 81 | 253 | 2.0 | 3.0 | 0.00 | 0.00 | 0.00 | 47 | 1009.9 |
| 20260904184756 | 83 | 73 | 3.0 | 4.0 | 0.00 | 0.00 | 0.00 | 45 | 1009.9 |
| 20260904184507 | 82 | 121 | 2.0 | 6.0 | 0.00 | 0.02 | 0.00 | 50 | 1007.9 |
| 20260904184252 | 83 | 223 | 1.0 | 3.0 | 0.00 | 0.00 | 0.00 | 51 | 1009.8 |
| 20260904183748 | 83 | 259 | 2.0 | 3.0 | 0.00 | 0.00 | 0.00 | 51 | 1010.0 |
| 20260904183248 | 83 | 77 | 0.0 | 5.0 | 0.00 | 0.00 | 0.00 | 47 | 1009.8 |
| 20260904183007 | 81 | 205 | 1.0 | 3.0 | 0.00 | 0.02 | 0.00 | 51 | 1008.0 |
| 20260904182743 | 82 | 276 | 0.0 | 5.0 | 0.00 | 0.00 | 0.00 | 50 | 1010.1 |
| 20260904182238 | 82 | 213 | 2.0 | 4.0 | 0.00 | 0.00 | 0.00 | 50 | 1010.2 |
| 20260904181734 | 82 | 253 | 0.0 | 5.0 | 0.00 | 0.00 | 0.00 | 54 | 1010.1 |
| 20260904181507 | 81 | 188 | 2.0 | 5.0 | 0.00 | 0.02 | 0.00 | 48 | 1008.2 |
| 20260904181233 | 82 | 128 | 4.0 | 4.0 | 0.00 | 0.00 | 0.00 | 44 | 1010.2 |
| 20260904180729 | 83 | 267 | 1.0 | 4.0 | 0.00 | 0.00 | 0.00 | 51 | 1010.1 |
| 20260904180224 | 82 | 245 | 2.0 | 3.0 | 0.00 | 0.00 | 0.00 | 53 | 1010.2 |
| 20260904180006 | 81 | 244 | 1.0 | 3.0 | 0.00 | 0.02 | 0.00 | 52 | 1008.2 |
| 20260904175723 | 82 | 79 | 2.0 | 3.0 | 0.00 | 0.00 | 0.00 | 47 | 1010.0 |
| 20260904175221 | 81 | 92 | 2.0 | 4.0 | 0.00 | 0.00 | 0.00 | 52 | 1010.0 |
| 20260904174717 | 81 | 234 | 1.0 | 3.0 | 0.00 | 0.00 | 0.00 | 50 | 1010.3 |
| 20260904174507 | 80 | 232 | 1.0 | 6.0 | 0.00 | 0.02 | 0.00 | 52 | 1008.3 |
| 20260904174213 | 81 | 72 | 2.0 | 6.0 | 0.00 | 0.00 | 0.00 | 47 | 1010.2 |
| 20260904173708 | 80 | 319 | 0.0 | 5.0 | 0.00 | 0.00 | 0.00 | 52 | 1010.3 |
| 20260904173203 | 81 | 317 | 0.0 | 3.0 | 0.00 | 0.00 | 0.00 | 51 | 1010.2 |
| 20260904173008 | 80 | 303 | 1.0 | 5.0 | 0.00 | 0.02 | 0.00 | 50 | 1008.4 |
| 20260904172700 | 81 | 67 | 1.0 | 3.0 | 0.00 | 0.00 | 0.00 | 48 | 1010.3 |
| 20260904172159 | 81 | 218 | 0.0 | 6.0 | 0.00 | 0.00 | 0.00 | 49 | 1010.5 |
| 20260904171654 | 81 | 222 | 1.0 | 3.0 | 0.00 | 0.00 | 0.00 | 47 | 1010.2 |
| 20260904171507 | 81 | 203 | 1.0 | 3.0 | 0.00 | 0.02 | 0.00 | 52 | 1008.3 |
| 20260904171154 | 82 | 215 | 0.0 | 4.0 | 0.00 | 0.00 | 0.00 | 50 | 1010.4 |
| 20260904170651 | 82 | 301 | 2.0 | 4.0 | 0.00 | 0.00 | 0.00 | 47 | 1010.3 |
| 20260904170146 | 82 | 82 | 2.0 | 3.0 | 0.00 | 0.00 | 0.00 | 50 | 1010.4 |
| 20260904165645 | 82 | 315 | 1.0 | 3.0 | 0.00 | 0.00 | 0.00 | 53 | 1010.5 |
| 20260904165144 | 81 | 41 | 1.0 | 3.0 | 0.00 | 0.00 | 0.00 | 51 | 1010.4 |
| 20260904164639 | 81 | 240 | 2.0 | 5.0 | 0.00 | 0.00 | 0.00 | 55 | 1010.2 |
| 20260904164507 | 80 | 226 | 2.0 | 3.0 | 0.00 | 0.02 | 0.00 | 49 | 1008.6 |
| 20260904164134 | 81 | 100 | 1.0 | 3.0 | 0.00 | 0.00 | 0.00 | 52 | 1010.4 |
| 20260904163630 | 81 | 345 | 1.0 | 2.0 | 0.00 | 0.00 | 0.00 | 53 | 1010.3 |
| 20260904163126 | 80 | 145 | 2.0 | 3.0 | 0.00 | 0.00 | 0.00 | 51 | 1010.4 |
| 20260904163007 | 79 | 171 | 1.0 | 6.0 | 0.00 | 0.02 | 0.00 | 57 | 1008.5 |
| 20260904162620 | 80 | 137 | 2.0 | 3.0 | 0.00 | 0.00 | 0.00 | 53 | 1010.4 |
| 20260904162115 | 79 | 131 | 2.0 | 3.0 | 0.00 | 0.00 | 0.00 | 54 | 1010.7 |
| 20260904161610 | 80 | 288 | 1.0 | 4.0 | 0.00 | 0.00 | 0.00 | 56 | 1010.4 |
| 20260904161506 | 79 | 182 | 1.0 | 5.0 | 0.00 | 0.02 | 0.00 | 57 | 1008.7 |
| 20260904161105 | 79 | 277 | 1.0 | 5.0 | 0.00 | 0.00 | 0.00 | 58 | 1010.5 |
| 20260904160601 | 80 | 86 | 0.0 | 2.0 | 0.00 | 0.00 | 0.00 | 55 | 1010.4 |
| 20260904160057 | 79 | 256 | 2.0 | 3.0 | 0.00 | 0.00 | 0.00 | 60 | 1010.6 |
| 20260904160007 | 79 | 238 | 1.0 | 3.0 | 0.00 | 0.02 | 0.00 | 57 | 1008.8 |
| 20260904155555 | 79 | 163 | 1.0 | 3.0 | 0.00 | 0.00 | 0.00 | 60 | 1010.6 |
| 20260904155050 | 79 | 251 | 1.0 | 2.0 | 0.00 | 0.00 | 0.00 | 62 | 1010.7 |
| 20260904154543 | 78 | 81 | 1.0 | 4.0 | 0.00 | 0.00 | 0.00 | 56 | 1010.7 |
| 20260904154506 | 78 | 239 | 1.0 | 3.0 | 0.00 | 0.02 | 0.00 | 60 | 1008.8 |
| 20260904154038 | 78 | 211 | 0.0 | 2.0 | 0.00 | 0.00 | 0.00 | 62 | 1010.5 |
| 20260904153538 | 78 | 77 | 2.0 | 4.0 | 0.00 | 0.00 | 0.00 | 60 | 1010.7 |
| 20260904153034 | 78 | 203 | 2.0 | 3.0 | 0.00 | 0.00 | 0.00 | 61 | 1010.6 |
| 20260904152530 | 77 | 39 | 2.0 | 4.0 | 0.00 | 0.00 | 0.00 | 61 | 1010.7 |
| 20260904152025 | 77 | 81 | 1.0 | 3.0 | 0.00 | 0.00 | 0.00 | 66 | 1010.8 |
| 20260904151520 | 77 | 85 | 2.0 | 3.0 | 0.00 | 0.00 | 0.00 | 61 | 1010.8 |
| 20260904151020 | 78 | 28 | 2.0 | 3.0 | 0.00 | 0.00 | 0.00 | 62 | 1010.7 |
| 20260904150520 | 78 | 79 | 1.0 | 3.0 | 0.00 | 0.00 | 0.00 | 62 | 1010.6 |
| 20260904150015 | 79 | 28 | 2.0 | 5.0 | 0.00 | 0.00 | 0.00 | 62 | 1010.6 |
| 20260904150007 | 77 | 30 | 1.0 | 6.0 | 0.00 | 0.02 | 0.00 | 65 | 1008.8 |
| 20260904145509 | 79 | 92 | 1.0 | 5.0 | 0.00 | 0.00 | 0.00 | 61 | 1010.6 |
| 20260904145004 | 78 | 9 | 2.0 | 4.0 | 0.00 | 0.00 | 0.00 | 63 | 1010.8 |
| 20260904144501 | 77 | 106 | 2.0 | 2.0 | 0.00 | 0.00 | 0.00 | 67 | 1010.9 |
| 20260904143956 | 77 | 25 | 1.0 | 3.0 | 0.00 | 0.00 | 0.00 | 69 | 1011.0 |
| 20260904143452 | 76 | 149 | 1.0 | 2.0 | 0.00 | 0.00 | 0.00 | 71 | 1010.9 |
| 20260904143007 | 76 | 241 | 1.0 | 2.0 | 0.00 | 0.02 | 0.00 | 71 | 1009.1 |
| 20260904142948 | 77 | 42 | 1.0 | 2.0 | 0.00 | 0.00 | 0.00 | 69 | 1011.0 |
| 20260904142445 | 77 | 55 | 1.0 | 3.0 | 0.00 | 0.00 | 0.00 | 67 | 1011.0 |
| 20260904141944 | 77 | 54 | 2.0 | 2.0 | 0.00 | 0.00 | 0.00 | 69 | 1010.8 |
| 20260904141507 | 76 | 191 | 0.0 | 3.0 | 0.00 | 0.02 | 0.00 | 73 | 1009.2 |
| 20260904141439 | 77 | 209 | 0.0 | 2.0 | 0.00 | 0.00 | 0.00 | 71 | 1010.9 |
| 20260904140936 | 78 | 271 | 1.0 | 2.0 | 0.00 | 0.00 | 0.00 | 67 | 1010.7 |
| 20260904140435 | 78 | 114 | 3.0 | 3.0 | 0.00 | 0.00 | 0.00 | 66 | 1010.8 |
| 20260904140007 | 75 | 201 | 1.0 | 2.0 | 0.00 | 0.02 | 0.00 | 74 | 1008.8 |
| 20260904135934 | 76 | 131 | 0.0 | 3.0 | 0.00 | 0.00 | 0.00 | 71 | 1010.6 |
| 20260904135434 | 75 | 65 | 2.0 | 2.0 | 0.00 | 0.00 | 0.00 | 73 | 1010.6 |
| 20260904134931 | 75 | 65 | 2.0 | 3.0 | 0.00 | 0.00 | 0.00 | 71 | 1010.4 |
| 20260904134507 | 75 | 46 | 1.0 | 2.0 | 0.00 | 0.02 | 0.00 | 72 | 1008.8 |
| 20260904134430 | 76 | 9 | 2.0 | 4.0 | 0.00 | 0.00 | 0.00 | 69 | 1010.3 |
| 20260904133925 | 76 | 53 | 2.0 | 2.0 | 0.00 | 0.00 | 0.00 | 69 | 1010.6 |
| 20260904133420 | 77 | 50 | 4.0 | 4.0 | 0.00 | 0.00 | 0.00 | 69 | 1010.5 |
| 20260904133008 | 75 | 109 | 1.0 | 3.0 | 0.00 | 0.02 | 0.00 | 73 | 1008.7 |
| 20260904132915 | 77 | 124 | 2.0 | 4.0 | 0.00 | 0.00 | 0.00 | 69 | 1010.5 |
| 20260904132410 | 77 | 56 | 0.0 | 4.0 | 0.00 | 0.00 | 0.00 | 69 | 1010.3 |
| 20260904131910 | 76 | 68 | 1.0 | 3.0 | 0.00 | 0.00 | 0.00 | 71 | 1010.4 |
| 20260904131507 | 74 | 39 | 1.0 | 3.0 | 0.00 | 0.02 | 0.00 | 78 | 1008.7 |
| 20260904131405 | 76 | 42 | 0.0 | 2.0 | 0.00 | 0.00 | 0.00 | 74 | 1010.4 |
| 20260904130901 | 75 | 290 | 0.0 | 2.0 | 0.00 | 0.00 | 0.00 | 74 | 1010.3 |
| 20260904130359 | 75 | 199 | 0.0 | 4.0 | 0.00 | 0.00 | 0.00 | 73 | 1010.5 |
| 20260904130007 | 72 | 31 | 1.0 | 3.0 | 0.00 | 0.02 | 0.00 | 80 | 1008.8 |
| 20260904125855 | 75 | 39 | 2.0 | 4.0 | 0.00 | 0.00 | 0.00 | 74 | 1010.4 |
| 20260904125351 | 73 | 351 | 0.0 | 2.0 | 0.00 | 0.00 | 0.00 | 79 | 1010.4 |
| 20260904124850 | 73 | 248 | 0.0 | 3.0 | 0.00 | 0.00 | 0.00 | 83 | 1010.5 |
| 20260904124347 | 72 | 54 | 0.0 | 2.0 | 0.00 | 0.00 | 0.00 | 85 | 1010.5 |
| 20260904123842 | 73 | 311 | 0.0 | 2.0 | 0.00 | 0.00 | 0.00 | 85 | 1010.6 |
| 20260904123337 | 73 | 92 | 0.0 | 1.0 | 0.00 | 0.00 | 0.00 | 86 | 1010.7 |
| 20260904123008 | 70 | 219 | 0.0 | 1.0 | 0.00 | 0.02 | 0.00 | 92 | 1008.9 |
| 20260904122832 | 72 | 76 | 0.0 | 2.0 | 0.00 | 0.00 | 0.00 | 88 | 1010.7 |
| 20260904122332 | 70 | 74 | 0.0 | 1.0 | 0.00 | 0.00 | 0.00 | 91 | 1010.3 |
| 20260904121827 | 70 | 321 | 0.0 | 0.0 | 0.00 | 0.00 | 0.00 | 91 | 1010.2 |
| 20260904121323 | 70 | 228 | 1.0 | 2.0 | 0.00 | 0.00 | 0.00 | 91 | 1010.1 |
| 20260904120820 | 70 | 303 | 0.0 | 2.0 | 0.00 | 0.00 | 0.00 | 92 | 1010.2 |
| 20260904120315 | 70 | 352 | 0.0 | 0.0 | 0.00 | 0.00 | 0.00 | 92 | 1010.3 |
| 20260904120007 | 70 | 130 | 0.0 | 1.0 | 0.00 | 0.02 | 0.00 | 95 | 1008.6 |
| 20260904115810 | 70 | 228 | 0.0 | 1.0 | 0.00 | 0.00 | 0.00 | 93 | 1010.3 |
| 20260904115306 | 70 | 36 | 2.0 | 2.0 | 0.00 | 0.00 | 0.00 | 93 | 1010.5 |
| 20260904114800 | 70 | 81 | 0.0 | 2.0 | 0.00 | 0.00 | 0.00 | 93 | 1010.4 |
| 20260904114507 | 69 | 130 | 0.0 | 1.0 | 0.00 | 0.02 | 0.00 | 95 | 1008.8 |
| 20260904114259 | 69 | 64 | 0.0 | 2.0 | 0.00 | 0.00 | 0.00 | 93 | 1010.4 |
| 20260904113755 | 69 | 70 | 1.0 | 2.0 | 0.00 | 0.00 | 0.00 | 94 | 1010.5 |
| 20260904113254 | 69 | 39 | 0.0 | 2.0 | 0.00 | 0.00 | 0.00 | 94 | 1010.4 |
| 20260904113008 | 69 | 128 | 0.0 | 1.0 | 0.00 | 0.02 | 0.00 | 96 | 1008.8 |
| 20260904112749 | 69 | 84 | 0.0 | 2.0 | 0.00 | 0.00 | 0.00 | 95 | 1010.5 |
| 20260904112244 | 69 | 75 | 0.0 | 2.0 | 0.00 | 0.00 | 0.00 | 95 | 1010.4 |
| 20260904111740 | 69 | 38 | 1.0 | 1.0 | 0.00 | 0.00 | 0.00 | 95 | 1010.4 |
| 20260904111507 | 69 | 128 | 0.0 | 1.0 | 0.00 | 0.02 | 0.00 | 96 | 1008.5 |
| 20260904111236 | 69 | 51 | 0.0 | 2.0 | 0.00 | 0.00 | 0.00 | 96 | 1010.1 |
| 20260904110731 | 69 | 89 | 0.0 | 2.0 | 0.00 | 0.00 | 0.00 | 96 | 1010.4 |
| 20260904110230 | 69 | 48 | 0.0 | 2.0 | 0.00 | 0.00 | 0.00 | 96 | 1010.3 |
| 20260904110007 | 69 | 178 | 0.0 | 0.0 | 0.00 | 0.02 | 0.00 | 96 | 1008.4 |
| 20260904105725 | 69 | 43 | 1.0 | 2.0 | 0.00 | 0.00 | 0.00 | 95 | 1010.1 |
| 20260904105220 | 69 | 78 | 0.0 | 2.0 | 0.00 | 0.00 | 0.00 | 95 | 1010.0 |
| 20260904104715 | 69 | 49 | 1.0 | 2.0 | 0.00 | 0.00 | 0.00 | 95 | 1009.9 |
| 20260904104211 | 69 | 35 | 0.0 | 2.0 | 0.00 | 0.00 | 0.00 | 96 | 1009.7 |
| 20260904103708 | 69 | 54 | 0.0 | 1.0 | 0.00 | 0.00 | 0.00 | 96 | 1009.9 |
| 20260904103202 | 69 | 85 | 1.0 | 2.0 | 0.00 | 0.00 | 0.00 | 96 | 1009.8 |
| 20260904103007 | 69 | 178 | 0.0 | 0.0 | 0.00 | 0.02 | 0.00 | 97 | 1007.9 |
| 20260904102658 | 69 | 27 | 0.0 | 2.0 | 0.00 | 0.00 | 0.00 | 96 | 1009.8 |
| 20260904102153 | 69 | 74 | 2.0 | 2.0 | 0.00 | 0.00 | 0.00 | 96 | 1009.8 |
| 20260904101650 | 69 | 103 | 0.0 | 2.0 | 0.00 | 0.00 | 0.00 | 96 | 1009.6 |
| 20260904101506 | 69 | 178 | 0.0 | 1.0 | 0.00 | 0.03 | 0.00 | 97 | 1008.0 |
| 20260904101145 | 69 | 34 | 1.0 | 2.0 | 0.00 | 0.00 | 0.00 | 96 | 1009.7 |
| 20260904100641 | 69 | 95 | 0.0 | 2.0 | 0.00 | 0.00 | 0.00 | 96 | 1009.6 |
| 20260904100137 | 69 | 72 | 0.0 | 2.0 | 0.00 | 0.00 | 0.00 | 96 | 1009.7 |
| 20260904100007 | 69 | 178 | 0.0 | 1.0 | 0.00 | 0.03 | 0.00 | 97 | 1007.8 |
| 20260904095636 | 69 | 61 | 0.0 | 1.0 | 0.00 | 0.00 | 0.00 | 96 | 1009.7 |
| 20260904095131 | 69 | 88 | 2.0 | 2.0 | 0.00 | 0.00 | 0.00 | 97 | 1009.7 |
| 20260904094627 | 69 | 97 | 2.0 | 2.0 | 0.00 | 0.00 | 0.00 | 97 | 1009.7 |
| 20260904094506 | 69 | 189 | 0.0 | 0.0 | 0.00 | 0.03 | 0.00 | 97 | 1007.8 |
| 20260904094127 | 69 | 73 | 1.0 | 2.0 | 0.00 | 0.00 | 0.00 | 97 | 1009.8 |
| 20260904093624 | 69 | 84 | 0.0 | 2.0 | 0.00 | 0.00 | 0.00 | 97 | 1009.7 |
| 20260904093123 | 69 | 101 | 2.0 | 2.0 | 0.00 | 0.00 | 0.00 | 97 | 1009.8 |
| 20260904093007 | 69 | 189 | 0.0 | 0.0 | 0.00 | 0.03 | 0.00 | 98 | 1007.7 |
| 20260904092620 | 69 | 76 | 1.0 | 1.0 | 0.00 | 0.00 | 0.00 | 97 | 1009.7 |
| 20260904092115 | 69 | 63 | 0.0 | 2.0 | 0.00 | 0.00 | 0.00 | 97 | 1009.7 |
| 20260904091611 | 69 | 29 | 0.0 | 1.0 | 0.00 | 0.00 | 0.00 | 97 | 1009.7 |
| 20260904091111 | 69 | 55 | 0.0 | 1.0 | 0.00 | 0.00 | 0.00 | 97 | 1009.5 |
| 20260904090607 | 69 | 184 | 0.0 | 2.0 | 0.00 | 0.00 | 0.00 | 97 | 1009.5 |
| 20260904085557 | 69 | 49 | 1.0 | 2.0 | 0.00 | 0.00 | 0.00 | 97 | 1009.4 |
| 20260904085056 | 69 | 82 | 0.0 | 2.0 | 0.00 | 0.00 | 0.00 | 97 | 1009.3 |
| 20260904084552 | 69 | 52 | 1.0 | 2.0 | 0.00 | 0.00 | 0.00 | 98 | 1009.2 |
| 20260904084506 | 69 | 190 | 0.0 | 0.0 | 0.00 | 0.03 | 0.00 | 98 | 1007.1 |
| 20260904084049 | 69 | 76 | 1.0 | 2.0 | 0.00 | 0.00 | 0.00 | 98 | 1009.1 |
| 20260904083544 | 69 | 60 | 1.0 | 2.0 | 0.00 | 0.00 | 0.00 | 98 | 1009.3 |
| 20260904083040 | 69 | 114 | 0.0 | 2.0 | 0.00 | 0.00 | 0.00 | 98 | 1009.2 |
| 20260904082535 | 69 | 42 | 1.0 | 2.0 | 0.00 | 0.00 | 0.00 | 98 | 1009.1 |
| 20260904082036 | 69 | 82 | 0.0 | 2.0 | 0.00 | 0.00 | 0.00 | 98 | 1009.4 |
| 20260904081531 | 69 | 50 | 0.0 | 2.0 | 0.00 | 0.00 | 0.00 | 98 | 1009.2 |
| 20260904081508 | 69 | 190 | 0.0 | 0.0 | 0.00 | 0.03 | 0.00 | 98 | 1007.3 |
| 20260904081026 | 69 | 77 | 0.0 | 2.0 | 0.00 | 0.00 | 0.00 | 98 | 1009.3 |
| 20260904080522 | 69 | 58 | 1.0 | 2.0 | 0.00 | 0.00 | 0.00 | 98 | 1009.2 |
| 20260904080018 | 69 | 47 | 1.0 | 2.0 | 0.00 | 0.00 | 0.00 | 98 | 1009.1 |
| 20260904080008 | 69 | 190 | 0.0 | 0.0 | 0.00 | 0.03 | 0.00 | 98 | 1007.1 |
| 20260904075514 | 69 | 66 | 0.0 | 2.0 | 0.00 | 0.00 | 0.00 | 98 | 1009.1 |
| 20260904075009 | 69 | 65 | 1.0 | 2.0 | 0.00 | 0.00 | 0.00 | 98 | 1009.2 |
| 20260904074507 | 69 | 190 | 0.0 | 1.0 | 0.00 | 0.03 | 0.00 | 98 | 1007.1 |
| 20260904074502 | 69 | 83 | 0.0 | 1.0 | 0.00 | 0.00 | 0.00 | 98 | 1009.2 |
| 20260904073957 | 69 | 322 | 0.0 | 1.0 | 0.00 | 0.00 | 0.00 | 98 | 1009.1 |
| 20260904073453 | 69 | 54 | 0.0 | 1.0 | 0.00 | 0.00 | 0.00 | 98 | 1008.9 |
| 20260904073007 | 69 | 190 | 0.0 | 0.0 | 0.00 | 0.03 | 0.00 | 98 | 1006.9 |
| 20260904072948 | 69 | 67 | 0.0 | 1.0 | 0.00 | 0.00 | 0.00 | 98 | 1008.8 |
| 20260904072445 | 69 | 58 | 2.0 | 2.0 | 0.00 | 0.00 | 0.00 | 98 | 1008.9 |
| 20260904071939 | 69 | 36 | 0.0 | 2.0 | 0.00 | 0.00 | 0.00 | 98 | 1009.0 |
| 20260904071507 | 69 | 190 | 0.0 | 1.0 | 0.00 | 0.03 | 0.00 | 98 | 1006.9 |
| 20260904071435 | 69 | 164 | 0.0 | 1.0 | 0.00 | 0.00 | 0.00 | 97 | 1008.9 |
| 20260904070934 | 69 | 117 | 0.0 | 0.0 | 0.00 | 0.00 | 0.00 | 97 | 1008.6 |
| 20260904070433 | 69 | 79 | 1.0 | 2.0 | 0.00 | 0.00 | 0.00 | 97 | 1008.6 |
| 20260904070007 | 69 | 190 | 0.0 | 0.0 | 0.00 | 0.03 | 0.00 | 97 | 1006.6 |
| 20260904065928 | 69 | 62 | 0.0 | 1.0 | 0.00 | 0.00 | 0.00 | 97 | 1008.8 |
| 20260904065424 | 69 | 77 | 1.0 | 2.0 | 0.00 | 0.00 | 0.00 | 97 | 1008.6 |
| 20260904064925 | 68 | 48 | 0.0 | 2.0 | 0.00 | 0.00 | 0.00 | 97 | 1008.8 |
| 20260904064507 | 69 | 190 | 0.0 | 1.0 | 0.00 | 0.03 | 0.00 | 97 | 1006.6 |
| 20260904064421 | 68 | 341 | 0.0 | 1.0 | 0.00 | 0.00 | 0.00 | 97 | 1008.7 |
| 20260904063916 | 68 | 81 | 0.0 | 1.0 | 0.00 | 0.00 | 0.00 | 97 | 1008.5 |
| 20260904063413 | 69 | 55 | 0.0 | 1.0 | 0.00 | 0.00 | 0.00 | 97 | 1008.5 |
| 20260904063008 | 69 | 190 | 0.0 | 1.0 | 0.00 | 0.06 | 0.00 | 97 | 1006.5 |
| 20260904062912 | 69 | 53 | 2.0 | 2.0 | 0.00 | 0.00 | 0.00 | 97 | 1008.4 |
| 20260904062409 | 69 | 64 | 0.0 | 2.0 | 0.00 | 0.00 | 0.00 | 97 | 1008.4 |
| 20260904061904 | 69 | 76 | 0.0 | 2.0 | 0.00 | 0.00 | 0.00 | 97 | 1008.8 |
| 20260904061401 | 69 | 72 | 0.0 | 2.0 | 0.00 | 0.00 | 0.00 | 97 | 1008.8 |
| 20260904060856 | 69 | 57 | 0.0 | 2.0 | 0.00 | 0.00 | 0.00 | 97 | 1008.6 |
| 20260904060352 | 69 | 51 | 2.0 | 2.0 | 0.00 | 0.00 | 0.00 | 97 | 1008.8 |
| 20260904060006 | 69 | 190 | 0.0 | 0.0 | 0.00 | 0.17 | 0.00 | 97 | 1006.8 |
| 20260904055847 | 69 | 77 | 0.0 | 2.0 | 0.00 | 0.00 | 0.00 | 97 | 1009.1 |
| 20260904055342 | 69 | 110 | 0.0 | 2.0 | 0.00 | 0.00 | 0.00 | 97 | 1008.8 |
| 20260904054838 | 69 | 62 | 2.0 | 2.0 | 0.00 | 0.00 | 0.00 | 97 | 1008.9 |
| 20260904054506 | 69 | 190 | 0.0 | 1.0 | 0.00 | 0.18 | 0.00 | 97 | 1007.0 |
| 20260904054334 | 69 | 52 | 0.0 | 1.0 | 0.00 | 0.00 | 0.00 | 97 | 1009.1 |
| 20260904053829 | 69 | 37 | 0.0 | 2.0 | 0.00 | 0.00 | 0.00 | 97 | 1009.0 |
| 20260904053329 | 69 | 98 | 0.0 | 2.0 | 0.00 | 0.00 | 0.00 | 97 | 1009.1 |
| 20260904053006 | 69 | 190 | 0.0 | 0.0 | 0.00 | 0.19 | 0.00 | 97 | 1007.1 |
| 20260904052825 | 69 | 66 | 0.0 | 2.0 | 0.00 | 0.00 | 0.00 | 97 | 1009.2 |
| 20260904052321 | 69 | 74 | 1.0 | 2.0 | 0.00 | 0.00 | 0.00 | 97 | 1009.2 |
| 20260904051817 | 69 | 62 | 1.0 | 2.0 | 0.00 | 0.00 | 0.00 | 97 | 1009.4 |
| 20260904051313 | 69 | 58 | 1.0 | 2.0 | 0.00 | 0.00 | 0.00 | 96 | 1009.2 |
| 20260904050807 | 69 | 44 | 0.0 | 1.0 | 0.00 | 0.00 | 0.00 | 96 | 1009.4 |
| 20260904050304 | 69 | 227 | 1.0 | 1.0 | 0.00 | 0.00 | 0.00 | 96 | 1009.2 |
| 20260904050007 | 69 | 248 | 1.0 | 2.0 | 0.00 | 0.19 | 0.00 | 96 | 1007.2 |
| 20260904045804 | 69 | 212 | 1.0 | 2.0 | 0.00 | 0.00 | 0.00 | 96 | 1009.0 |
| 20260904045259 | 69 | 64 | 0.0 | 2.0 | 0.00 | 0.00 | 0.00 | 96 | 1009.1 |
| 20260904044753 | 69 | 41 | 2.0 | 2.0 | 0.00 | 0.00 | 0.00 | 96 | 1009.0 |
| 20260904044507 | 70 | 232 | 0.0 | 1.0 | 0.00 | 0.22 | 0.00 | 96 | 1007.1 |
| 20260904044251 | 69 | 33 | 0.0 | 2.0 | 0.00 | 0.00 | 0.00 | 95 | 1008.9 |
| 20260904043746 | 69 | 80 | 1.0 | 2.0 | 0.00 | 0.00 | 0.00 | 95 | 1009.0 |
| 20260904043242 | 69 | 55 | 0.0 | 2.0 | 0.00 | 0.00 | 0.00 | 95 | 1009.0 |
| 20260904042737 | 69 | 77 | 0.0 | 2.0 | 0.00 | 0.00 | 0.00 | 95 | 1009.0 |
| 20260904042234 | 70 | 45 | 0.0 | 2.0 | 0.00 | 0.00 | 0.00 | 95 | 1009.0 |
| 20260904041733 | 70 | 229 | 0.0 | 1.0 | 0.00 | 0.00 | 0.00 | 95 | 1008.9 |
| 20260904041506 | 70 | 232 | 0.0 | 2.0 | 0.00 | 0.27 | 0.00 | 96 | 1007.1 |
| 20260904041229 | 70 | 80 | 1.0 | 3.0 | 0.00 | 0.00 | 0.00 | 95 | 1009.1 |
| 20260904040725 | 69 | 62 | 2.0 | 2.0 | 0.00 | 0.00 | 0.00 | 95 | 1009.2 |
| 20260904040220 | 70 | 240 | 1.0 | 4.0 | 0.00 | 0.00 | 0.00 | 95 | 1009.5 |
| 20260904040007 | 70 | 198 | 0.0 | 0.0 | 0.00 | 0.27 | 0.00 | 96 | 1007.5 |
| 20260904035716 | 70 | 47 | 1.0 | 2.0 | 0.00 | 0.26 | 0.26 | 95 | 1009.2 |
| 20260904035212 | 70 | 65 | 1.0 | 2.0 | 0.00 | 0.26 | 0.26 | 95 | 1009.2 |
| 20260904034710 | 70 | 129 | 0.0 | 1.0 | 0.00 | 0.26 | 0.26 | 95 | 1009.3 |
| 20260904034508 | 71 | 198 | 0.0 | 0.0 | 0.01 | 0.27 | 0.27 | 96 | 1007.3 |
| 20260904034206 | 70 | 269 | 0.0 | 2.0 | 0.00 | 0.26 | 0.26 | 95 | 1009.1 |
| 20260904033702 | 70 | 72 | 0.0 | 2.0 | 0.00 | 0.26 | 0.26 | 95 | 1009.2 |
| 20260904033159 | 70 | 59 | 2.0 | 2.0 | 0.00 | 0.26 | 0.26 | 95 | 1009.4 |
| 20260904033007 | 71 | 198 | 0.0 | 0.0 | 0.01 | 0.27 | 0.27 | 95 | 1007.4 |
| 20260904032655 | 70 | 58 | 0.0 | 2.0 | 0.00 | 0.26 | 0.26 | 95 | 1009.4 |
| 20260904032154 | 70 | 55 | 0.0 | 2.0 | 0.00 | 0.26 | 0.26 | 95 | 1009.5 |
| 20260904031654 | 70 | 70 | 2.0 | 2.0 | 0.00 | 0.26 | 0.26 | 95 | 1009.7 |
| 20260904031507 | 71 | 198 | 0.0 | 0.0 | 0.01 | 0.27 | 0.27 | 95 | 1007.7 |
| 20260904031149 | 70 | 97 | 0.0 | 2.0 | 0.00 | 0.26 | 0.26 | 95 | 1009.5 |
| 20260904030645 | 70 | 214 | 0.0 | 1.0 | 0.00 | 0.26 | 0.26 | 95 | 1009.5 |
| 20260904030140 | 70 | 98 | 0.0 | 1.0 | 0.00 | 0.26 | 0.26 | 95 | 1009.6 |
| 20260904030007 | 71 | 227 | 0.0 | 0.0 | 0.01 | 0.28 | 0.27 | 95 | 1007.8 |
| 20260904025636 | 70 | 230 | 0.0 | 3.0 | 0.00 | 0.26 | 0.26 | 95 | 1009.5 |
| 20260904025130 | 71 | 113 | 0.0 | 1.0 | 0.00 | 0.26 | 0.26 | 96 | 1009.6 |
| 20260904024626 | 71 | 322 | 0.0 | 1.0 | 0.00 | 0.26 | 0.26 | 96 | 1009.5 |
| 20260904024507 | 72 | 184 | 0.0 | 0.0 | 0.00 | 0.30 | 0.26 | 96 | 1007.6 |
| 20260904024122 | 71 | 124 | 0.0 | 1.0 | 0.00 | 0.26 | 0.26 | 96 | 1009.2 |
| 20260904023617 | 71 | 82 | 0.0 | 0.0 | 0.00 | 0.26 | 0.26 | 96 | 1009.3 |
| 20260904023113 | 72 | 66 | 0.0 | 2.0 | 0.00 | 0.26 | 0.26 | 96 | 1009.1 |
| 20260904023007 | 72 | 184 | 0.0 | 0.0 | 0.00 | 0.68 | 0.26 | 96 | 1007.3 |
| 20260904022613 | 72 | 50 | 0.0 | 1.0 | 0.00 | 0.26 | 0.26 | 96 | 1009.2 |
| 20260904022110 | 72 | 71 | 1.0 | 2.0 | 0.00 | 0.26 | 0.26 | 96 | 1009.2 |
| 20260904021605 | 72 | 65 | 0.0 | 1.0 | 0.00 | 0.26 | 0.26 | 96 | 1009.4 |
| 20260904021507 | 73 | 184 | 0.0 | 0.0 | 0.00 | 1.06 | 0.26 | 96 | 1007.7 |
| 20260904021100 | 72 | 57 | 0.0 | 2.0 | 0.00 | 0.26 | 0.26 | 96 | 1009.5 |
| 20260904020555 | 72 | 102 | 0.0 | 1.0 | 0.00 | 0.26 | 0.26 | 96 | 1009.7 |
| 20260904020050 | 72 | 68 | 0.0 | 2.0 | 0.00 | 0.26 | 0.26 | 96 | 1009.7 |
| 20260904020007 | 73 | 184 | 0.0 | 0.0 | 0.00 | 1.06 | 0.26 | 96 | 1008.0 |
| 20260904015545 | 72 | 101 | 0.0 | 2.0 | 0.00 | 0.26 | 0.26 | 96 | 1009.7 |
| 20260904015043 | 72 | 74 | 2.0 | 2.0 | 0.00 | 0.26 | 0.26 | 96 | 1009.8 |
| 20260904014537 | 72 | 61 | 2.0 | 2.0 | 0.00 | 0.26 | 0.26 | 96 | 1010.0 |
| 20260904014506 | 73 | 184 | 0.0 | 1.0 | 0.00 | 1.06 | 0.26 | 95 | 1008.1 |
| 20260904014033 | 72 | 84 | 1.0 | 2.0 | 0.00 | 0.26 | 0.26 | 95 | 1009.9 |
| 20260904013529 | 73 | 50 | 0.0 | 2.0 | 0.00 | 0.26 | 0.26 | 95 | 1010.1 |
| 20260904013026 | 73 | 55 | 0.0 | 2.0 | 0.00 | 0.26 | 0.26 | 95 | 1010.3 |
| 20260904013008 | 73 | 184 | 0.0 | 0.0 | 0.00 | 1.06 | 0.26 | 96 | 1008.4 |
| 20260904012527 | 73 | 36 | 0.0 | 1.0 | 0.00 | 0.26 | 0.26 | 95 | 1010.0 |
| 20260904012026 | 73 | 344 | 0.0 | 1.0 | 0.00 | 0.26 | 0.26 | 96 | 1010.4 |
| 20260904011525 | 73 | 61 | 1.0 | 2.0 | 0.00 | 0.26 | 0.26 | 96 | 1010.5 |
| 20260904011507 | 74 | 184 | 0.0 | 0.0 | 0.00 | 1.06 | 0.26 | 96 | 1008.5 |
| 20260904011021 | 73 | 54 | 1.0 | 1.0 | 0.00 | 0.26 | 0.26 | 96 | 1010.3 |
| 20260904010517 | 73 | 309 | 0.0 | 1.0 | 0.00 | 0.26 | 0.26 | 95 | 1010.3 |
| 20260904010013 | 73 | 339 | 0.0 | 1.0 | 0.00 | 0.26 | 0.26 | 95 | 1010.3 |
| 20260904010007 | 74 | 184 | 0.0 | 0.0 | 0.00 | 1.06 | 0.26 | 95 | 1008.5 |
| 20260904005514 | 73 | 54 | 0.0 | 1.0 | 0.00 | 0.26 | 0.26 | 95 | 1010.1 |
| 20260904005009 | 73 | 238 | 0.0 | 1.0 | 0.00 | 0.26 | 0.26 | 95 | 1010.0 |
| 20260904004506 | 74 | 184 | 0.0 | 0.0 | 0.01 | 1.06 | 0.26 | 94 | 1008.4 |
| 20260904004004 | 73 | 81 | 1.0 | 2.0 | 0.00 | 0.26 | 0.26 | 95 | 1010.0 |
| 20260904003500 | 73 | 73 | 1.0 | 1.0 | 0.00 | 0.26 | 0.26 | 94 | 1009.9 |
| 20260904003007 | 75 | 180 | 0.0 | 0.0 | 0.01 | 1.06 | 0.26 | 93 | 1008.1 |
| 20260904002955 | 74 | 283 | 0.0 | 1.0 | 0.00 | 0.26 | 0.26 | 94 | 1010.1 |
| 20260904002453 | 74 | 182 | 0.0 | 2.0 | 0.00 | 0.26 | 0.26 | 93 | 1009.7 |
| 20260904001951 | 74 | 38 | 0.0 | 0.0 | 0.00 | 0.26 | 0.26 | 93 | 1009.5 |
| 20260904001506 | 75 | 180 | 0.0 | 0.0 | 0.01 | 1.06 | 0.26 | 91 | 1007.8 |
| 20260904001447 | 74 | 58 | 0.0 | 1.0 | 0.00 | 0.26 | 0.26 | 92 | 1009.8 |
| 20260904000946 | 75 | 65 | 0.0 | 2.0 | 0.02 | 0.26 | 0.26 | 92 | 1009.7 |
| 20260904000447 | 75 | 64 | 0.0 | 1.0 | 0.05 | 0.26 | 0.26 | 92 | 1009.7 |
| 20260904000006 | 76 | 180 | 0.0 | 1.0 | 0.01 | 1.06 | 0.26 | 90 | 1007.7 |
| 20260903235941 | 75 | 59 | 0.0 | 2.0 | 0.05 | 0.26 | 0.26 | 92 | 1009.4 |
| 20260903235438 | 75 | 302 | 0.0 | 2.0 | 0.02 | 0.25 | 0.25 | 91 | 1009.4 |
| 20260903234937 | 75 | 227 | 1.0 | 2.0 | 0.02 | 0.25 | 0.25 | 90 | 1009.6 |
| 20260903234506 | 77 | 244 | 0.0 | 0.0 | 0.00 | 1.05 | 0.25 | 87 | 1007.8 |
| 20260903234433 | 76 | 104 | 0.0 | 2.0 | 0.00 | 0.25 | 0.25 | 89 | 1009.7 |
| 20260903233929 | 76 | 271 | 0.0 | 1.0 | 0.00 | 0.25 | 0.25 | 87 | 1009.7 |
| 20260903233426 | 77 | 36 | 0.0 | 1.0 | 0.00 | 0.25 | 0.25 | 86 | 1009.5 |
| 20260903232925 | 77 | 52 | 0.0 | 2.0 | 0.00 | 0.25 | 0.25 | 86 | 1009.3 |
| 20260903232420 | 77 | 269 | 0.0 | 1.0 | 0.00 | 0.25 | 0.25 | 84 | 1009.5 |
| 20260903231920 | 78 | 195 | 0.0 | 1.0 | 0.00 | 0.25 | 0.25 | 83 | 1009.2 |
| 20260903231506 | 79 | 244 | 0.0 | 0.0 | 0.00 | 1.05 | 0.25 | 81 | 1007.3 |
| 20260903231415 | 78 | 41 | 0.0 | 2.0 | 0.00 | 0.25 | 0.25 | 83 | 1009.1 |
| 20260903230910 | 78 | 36 | 0.0 | 2.0 | 0.00 | 0.25 | 0.25 | 82 | 1009.5 |
| 20260903230405 | 78 | 296 | 0.0 | 0.0 | 0.00 | 0.25 | 0.25 | 81 | 1009.2 |
| 20260903230007 | 80 | 244 | 0.0 | 0.0 | 0.00 | 1.05 | 0.25 | 78 | 1007.4 |
| 20260903225902 | 79 | 62 | 0.0 | 1.0 | 0.00 | 0.25 | 0.25 | 79 | 1009.5 |
| 20260903225357 | 79 | 49 | 0.0 | 1.0 | 0.00 | 0.25 | 0.25 | 79 | 1009.5 |
| 20260903224853 | 79 | 293 | 0.0 | 1.0 | 0.00 | 0.25 | 0.25 | 79 | 1009.3 |
| 20260903224506 | 80 | 244 | 0.0 | 1.0 | 0.00 | 1.05 | 0.25 | 77 | 1007.3 |
| 20260903224349 | 80 | 58 | 1.0 | 2.0 | 0.00 | 0.25 | 0.25 | 78 | 1009.1 |
| 20260903223845 | 80 | 76 | 1.0 | 2.0 | 0.00 | 0.25 | 0.25 | 79 | 1009.0 |
| 20260903223343 | 80 | 229 | 0.0 | 1.0 | 0.00 | 0.25 | 0.25 | 77 | 1009.0 |
| 20260903223007 | 81 | 244 | 0.0 | 1.0 | 0.00 | 1.05 | 0.25 | 75 | 1007.0 |
| 20260903222838 | 81 | 269 | 0.0 | 1.0 | 0.00 | 0.25 | 0.25 | 74 | 1008.8 |
| 20260903222338 | 81 | 55 | 0.0 | 2.0 | 0.00 | 0.25 | 0.25 | 74 | 1008.9 |
| 20260903221833 | 81 | 89 | 0.0 | 1.0 | 0.00 | 0.25 | 0.25 | 73 | 1008.8 |
| 20260903221507 | 82 | 244 | 0.0 | 1.0 | 0.00 | 1.05 | 0.25 | 72 | 1006.7 |
| 20260903221332 | 82 | 76 | 1.0 | 2.0 | 0.00 | 0.25 | 0.25 | 73 | 1008.6 |
| 20260903220830 | 82 | 255 | 0.0 | 1.0 | 0.00 | 0.25 | 0.25 | 70 | 1008.8 |
| 20260903220324 | 82 | 264 | 0.0 | 2.0 | 0.00 | 0.25 | 0.25 | 70 | 1008.9 |
| 20260903215822 | 82 | 78 | 1.0 | 2.0 | 0.00 | 0.25 | 0.25 | 71 | 1008.9 |
| 20260903215319 | 82 | 61 | 0.0 | 1.0 | 0.00 | 0.25 | 0.25 | 70 | 1009.0 |
| 20260903214817 | 83 | 72 | 0.0 | 1.0 | 0.00 | 0.25 | 0.25 | 67 | 1008.9 |
| 20260903214508 | 83 | 246 | 1.0 | 2.0 | 0.00 | 1.05 | 0.25 | 67 | 1007.0 |
| 20260903214313 | 83 | 88 | 1.0 | 2.0 | 0.00 | 0.25 | 0.25 | 69 | 1009.0 |
| 20260903213808 | 82 | 295 | 1.0 | 1.0 | 0.00 | 0.25 | 0.25 | 66 | 1008.9 |
| 20260903213303 | 83 | 238 | 4.0 | 4.0 | 0.00 | 0.25 | 0.25 | 65 | 1009.0 |
| 20260903213007 | 83 | 243 | 0.0 | 2.0 | 0.00 | 1.05 | 0.25 | 67 | 1007.1 |
| 20260903212759 | 83 | 63 | 0.0 | 1.0 | 0.00 | 0.25 | 0.25 | 67 | 1008.8 |
| 20260903212256 | 83 | 25 | 0.0 | 2.0 | 0.00 | 0.25 | 0.25 | 66 | 1008.7 |
| 20260903211754 | 83 | 261 | 0.0 | 2.0 | 0.00 | 0.25 | 0.25 | 65 | 1008.9 |
| 20260903211507 | 84 | 247 | 1.0 | 2.0 | 0.00 | 1.05 | 0.25 | 66 | 1006.9 |
| 20260903211251 | 84 | 241 | 2.0 | 3.0 | 0.00 | 0.25 | 0.25 | 63 | 1008.8 |
| 20260903210747 | 84 | 233 | 2.0 | 3.0 | 0.00 | 0.25 | 0.25 | 62 | 1008.7 |
| 20260903210242 | 85 | 300 | 0.0 | 2.0 | 0.00 | 0.25 | 0.25 | 62 | 1008.7 |
| 20260903210007 | 85 | 92 | 0.0 | 2.0 | 0.00 | 1.05 | 0.25 | 60 | 1006.8 |
| 20260903205742 | 85 | 326 | 0.0 | 2.0 | 0.00 | 0.25 | 0.25 | 59 | 1008.7 |
| 20260903205241 | 85 | 314 | 1.0 | 2.0 | 0.00 | 0.25 | 0.25 | 59 | 1008.9 |
| 20260903204737 | 85 | 248 | 0.0 | 2.0 | 0.00 | 0.25 | 0.25 | 61 | 1008.6 |
| 20260903204233 | 85 | 22 | 1.0 | 2.0 | 0.00 | 0.25 | 0.25 | 58 | 1008.7 |
| 20260903203728 | 85 | 38 | 0.0 | 1.0 | 0.00 | 0.25 | 0.25 | 63 | 1009.1 |
| 20260903203224 | 86 | 5 | 0.0 | 2.0 | 0.00 | 0.25 | 0.25 | 59 | 1009.0 |
| 20260903203007 | 86 | 182 | 0.0 | 3.0 | 0.00 | 1.05 | 0.25 | 62 | 1007.1 |
| 20260903202723 | 86 | 58 | 1.0 | 2.0 | 0.00 | 0.25 | 0.25 | 58 | 1009.0 |
| 20260903202220 | 87 | 130 | 2.0 | 3.0 | 0.00 | 0.25 | 0.25 | 56 | 1009.1 |
| 20260903201719 | 87 | 0 | 2.0 | 2.0 | 0.00 | 0.25 | 0.25 | 56 | 1009.1 |
| 20260903201507 | 87 | 135 | 0.0 | 2.0 | 0.00 | 1.05 | 0.25 | 57 | 1007.1 |
| 20260903201215 | 88 | 159 | 1.0 | 3.0 | 0.00 | 0.25 | 0.25 | 57 | 1009.1 |
| 20260903200713 | 88 | 242 | 2.0 | 3.0 | 0.00 | 0.25 | 0.25 | 56 | 1009.0 |
| 20260903200209 | 88 | 63 | 0.0 | 2.0 | 0.00 | 0.25 | 0.25 | 55 | 1009.3 |
| 20260903200007 | 86 | 32 | 1.0 | 3.0 | 0.00 | 1.05 | 0.25 | 58 | 1007.1 |